timestamp,wind_dir_avg,wind_spd_avg,wind_spd_max_dir,wind_spd_gust,battery_voltage,lat,long
2023-05-15 00:04:00+00:00,247.0,7.78,249.0,8.66,12.97,47.59359,-54.27349
2023-05-15 00:14:00+00:00,247.0,10.94,249.0,14.42,12.41,47.59359,-54.27349
2023-05-15 00:24:00+00:00,258.0,13.57,259.0,15.01,12.41,47.59359,-54.27349
2023-05-15 00:34:00+00:00,254.0,13.43,257.0,15.06,12.41,47.59359,-54.27349
2023-05-15 00:44:00+00:00,248.0,11.43,252.0,14.77,12.41,47.59359,-54.27349
2023-05-15 00:54:00+00:00,235.0,8.39,234.0,9.3,12.41,47.59359,-54.27349
2023-05-15 01:04:00+00:00,236.0,8.85,246.0,12.55,12.41,47.59359,-54.27349
2023-05-15 01:14:00+00:00,235.0,9.27,240.0,12.27,12.33,47.59359,-54.27349
2023-05-15 01:24:00+00:00,252.0,12.35,259.0,14.29,12.33,47.59359,-54.27349
2023-05-15 01:34:00+00:00,233.0,7.64,227.0,10.57,12.33,47.59359,-54.27349
2023-05-15 01:44:00+00:00,237.0,8.39,232.0,9.42,12.33,47.59359,-54.27349
2023-05-15 01:54:00+00:00,235.0,10.14,245.0,13.63,12.33,47.59359,-54.27349
2023-05-15 02:04:00+00:00,235.0,7.49,237.0,8.85,12.33,47.59359,-54.27349
2023-05-15 02:14:00+00:00,228.0,8.08,225.0,9.25,12.33,47.59359,-54.27349
2023-05-15 02:24:00+00:00,235.0,7.88,239.0,8.51,12.33,47.59359,-54.27349
2023-05-15 02:34:00+00:00,233.0,9.04,234.0,9.85,12.33,47.59359,-54.27349
2023-05-15 02:44:00+00:00,228.0,9.26,230.0,10.36,12.33,47.59359,-54.27349
2023-05-15 02:54:00+00:00,228.0,9.27,227.0,10.81,12.33,47.59359,-54.27349
2023-05-15 03:04:00+00:00,213.0,7.95,214.0,8.81,12.33,47.59359,-54.27349
2023-05-15 03:14:00+00:00,213.0,9.79,212.0,10.73,12.33,47.59359,-54.27349
2023-05-15 03:24:00+00:00,215.0,10.39,216.0,11.91,12.33,47.59359,-54.27349
2023-05-15 03:34:00+00:00,213.0,10.61,213.0,11.74,12.33,47.59359,-54.27349
2023-05-15 03:44:00+00:00,217.0,9.5,215.0,10.38,12.33,47.59359,-54.27349
2023-05-15 03:54:00+00:00,226.0,8.67,221.0,10.19,12.33,47.59359,-54.27349
2023-05-15 04:04:00+00:00,231.0,8.28,236.0,9.96,12.33,47.59359,-54.27349
2023-05-15 04:14:00+00:00,228.0,9.35,225.0,10.92,12.25,47.59359,-54.27349
2023-05-15 04:24:00+00:00,232.0,8.69,232.0,10.16,12.25,47.59359,-54.27349
2023-05-15 04:34:00+00:00,225.0,7.4,226.0,8.71,12.25,47.59359,-54.27349
2023-05-15 04:44:00+00:00,223.0,7.57,229.0,8.91,12.25,47.59359,-54.27349
2023-05-15 04:54:00+00:00,218.0,8.04,225.0,9.29,12.25,47.59359,-54.27349
2023-05-15 05:04:00+00:00,222.0,8.1,227.0,9.41,12.25,47.59359,-54.27349
2023-05-15 05:14:01+00:00,229.0,7.43,221.0,9.9,12.25,47.59359,-54.27349
2023-05-15 05:24:01+00:00,230.0,7.37,227.0,8.39,12.25,47.59359,-54.27349
2023-05-15 05:34:01+00:00,230.0,7.26,233.0,9.09,12.25,47.59359,-54.27349
2023-05-15 05:44:01+00:00,234.0,7.81,234.0,8.87,12.25,47.59359,-54.27349
2023-05-15 05:54:01+00:00,236.0,8.06,235.0,9.22,12.25,47.59359,-54.27349
2023-05-15 06:04:01+00:00,234.0,8.01,233.0,9.12,12.25,47.59359,-54.27349
2023-05-15 06:14:00+00:00,233.0,8.5,231.0,9.56,12.25,47.59359,-54.27349
2023-05-15 06:24:00+00:00,237.0,7.37,241.0,8.67,12.25,47.59359,-54.27349
2023-05-15 06:34:00+00:00,240.0,7.57,233.0,8.85,12.25,47.59359,-54.27349
2023-05-15 06:44:00+00:00,244.0,7.72,243.0,8.45,12.25,47.59359,-54.27349
2023-05-15 06:54:00+00:00,250.0,8.47,247.0,8.95,12.25,47.59359,-54.27349
2023-05-15 07:04:00+00:00,236.0,6.79,238.0,7.68,12.25,47.59359,-54.27349
2023-05-15 07:14:01+00:00,231.0,6.17,233.0,6.83,12.17,47.59359,-54.27349
2023-05-15 07:24:01+00:00,245.0,5.81,241.0,7.07,12.17,47.59359,-54.27349
2023-05-15 07:34:01+00:00,255.0,5.99,256.0,6.75,12.17,47.59359,-54.27349
2023-05-15 07:44:01+00:00,266.0,7.08,265.0,7.94,12.17,47.59359,-54.27349
2023-05-15 07:54:01+00:00,252.0,7.11,255.0,7.7,12.17,47.59359,-54.27349
2023-05-15 08:04:01+00:00,241.0,6.51,237.0,7.3,12.17,47.59359,-54.27349
2023-05-15 08:14:00+00:00,231.0,6.08,227.0,7.41,12.17,47.59359,-54.27349
2023-05-15 08:24:00+00:00,229.0,5.93,231.0,7.46,12.17,47.59359,-54.27349
2023-05-15 08:34:00+00:00,235.0,6.18,236.0,7.13,12.17,47.59359,-54.27349
2023-05-15 08:44:00+00:00,243.0,7.23,243.0,7.94,12.17,47.59359,-54.27349
2023-05-15 08:54:00+00:00,262.0,8.23,267.0,12.71,12.17,47.59359,-54.27349
2023-05-15 09:04:00+00:00,252.0,5.88,251.0,6.9,12.17,47.59359,-54.27349
2023-05-15 09:14:00+00:00,266.0,5.79,273.0,6.94,12.25,47.59359,-54.27349
2023-05-15 09:24:00+00:00,237.0,5.29,241.0,6.05,12.25,47.59359,-54.27349
2023-05-15 09:34:00+00:00,224.0,5.36,220.0,6.24,12.25,47.59359,-54.27349
2023-05-15 09:44:00+00:00,217.0,6.85,217.0,8.27,12.25,47.59359,-54.27349
2023-05-15 09:54:00+00:00,220.0,7.06,220.0,8.24,12.25,47.59359,-54.27349
2023-05-15 10:04:00+00:00,229.0,6.46,219.0,7.63,12.25,47.59359,-54.27349
2023-05-15 10:14:00+00:00,210.0,7.29,211.0,8.32,13.44,47.59359,-54.27349
2023-05-15 10:24:00+00:00,212.0,7.88,214.0,9.01,13.44,47.59359,-54.27349
2023-05-15 10:34:00+00:00,207.0,8.93,208.0,9.99,13.44,47.59359,-54.27349
2023-05-15 10:44:00+00:00,214.0,7.85,213.0,8.6,13.44,47.59359,-54.27349
2023-05-15 10:54:00+00:00,234.0,8.49,234.0,9.36,13.44,47.59359,-54.27349
2023-05-15 11:04:00+00:00,234.0,8.64,233.0,9.79,13.44,47.59359,-54.27349
2023-05-15 11:14:00+00:00,230.0,7.47,235.0,8.41,13.6,47.59359,-54.27349
2023-05-15 11:24:00+00:00,236.0,7.07,235.0,7.87,13.6,47.59359,-54.27349
2023-05-15 11:34:00+00:00,252.0,7.15,251.0,7.74,13.6,47.59359,-54.27349
2023-05-15 11:44:00+00:00,257.0,7.23,255.0,8.08,13.6,47.59359,-54.27349
2023-05-15 11:54:00+00:00,259.0,7.07,264.0,7.7,13.6,47.59359,-54.27349
2023-05-15 12:04:00+00:00,252.0,7.25,252.0,8.2,13.6,47.59359,-54.27349
2023-05-15 12:14:00+00:00,245.0,7.32,236.0,8.37,13.53,47.59359,-54.27349
2023-05-15 12:24:00+00:00,252.0,8.54,256.0,12.44,13.53,47.59359,-54.27349
2023-05-15 12:34:00+00:00,251.0,7.96,251.0,8.73,13.53,47.59359,-54.27349
2023-05-15 12:44:00+00:00,249.0,6.36,252.0,8.44,13.53,47.59359,-54.27349
2023-05-15 12:54:00+00:00,232.0,8.38,227.0,9.54,13.53,47.59359,-54.27349
2023-05-15 13:04:00+00:00,232.0,6.89,230.0,7.56,13.53,47.59359,-54.27349
2023-05-15 13:14:00+00:00,237.0,7.87,232.0,9.21,14.32,47.59359,-54.27349
2023-05-15 13:24:00+00:00,247.0,9.41,250.0,12.96,14.32,47.59359,-54.27349
2023-05-15 13:34:00+00:00,235.0,8.75,233.0,9.79,14.32,47.59359,-54.27349
2023-05-15 13:44:00+00:00,248.0,9.24,260.0,13.2,14.32,47.59359,-54.27349
2023-05-15 13:54:00+00:00,246.0,10.14,252.0,12.38,14.32,47.59359,-54.27349
2023-05-15 14:04:00+00:00,241.0,8.0,247.0,9.46,14.32,47.59359,-54.27349
2023-05-15 14:14:00+00:00,238.0,7.4,239.0,8.29,13.68,47.59359,-54.27349
2023-05-15 14:24:00+00:00,237.0,8.63,238.0,9.4,13.68,47.59359,-54.27349
2023-05-15 14:34:00+00:00,244.0,7.96,238.0,9.28,13.68,47.59359,-54.27349
2023-05-15 14:44:00+00:00,243.0,8.76,238.0,9.67,13.68,47.59359,-54.27349
2023-05-15 14:54:00+00:00,239.0,8.23,236.0,9.07,13.68,47.59359,-54.27349
2023-05-15 15:04:00+00:00,249.0,9.49,250.0,10.14,13.68,47.59359,-54.27349
2023-05-15 15:14:00+00:00,229.0,9.26,230.0,11.15,14.24,47.59359,-54.27349
2023-05-15 15:24:00+00:00,232.0,9.75,233.0,11.04,14.24,47.59359,-54.27349
2023-05-15 15:34:00+00:00,228.0,8.25,226.0,10.16,14.24,47.59359,-54.27349
2023-05-15 15:44:00+00:00,225.0,7.66,216.0,9.04,14.24,47.59359,-54.27349
2023-05-15 15:54:00+00:00,225.0,8.57,228.0,9.88,14.24,47.59359,-54.27349
2023-05-15 16:04:00+00:00,218.0,8.83,218.0,9.97,14.24,47.59359,-54.27349
2023-05-15 16:14:00+00:00,223.0,9.47,230.0,11.52,13.68,47.59359,-54.27349
2023-05-15 16:24:00+00:00,218.0,9.13,219.0,10.89,13.68,47.59359,-54.27349
2023-05-15 16:34:00+00:00,222.0,9.2,226.0,12.24,13.68,47.59359,-54.27349
2023-05-15 16:44:00+00:00,227.0,10.18,236.0,13.94,13.68,47.59359,-54.27349
2023-05-15 16:54:00+00:00,231.0,8.87,237.0,10.99,13.68,47.59359,-54.27349
2023-05-15 17:04:00+00:00,227.0,9.26,225.0,10.96,13.68,47.59359,-54.27349
2023-05-15 17:14:00+00:00,234.0,11.28,240.0,15.49,14.4,47.59359,-54.27349
2023-05-15 17:24:00+00:00,237.0,8.68,251.0,10.91,14.4,47.59359,-54.27349
2023-05-15 17:34:00+00:00,240.0,7.11,239.0,7.9,14.4,47.59359,-54.27349
2023-05-15 17:44:00+00:00,238.0,9.76,248.0,15.02,14.4,47.59359,-54.27349
2023-05-15 17:54:00+00:00,245.0,10.74,252.0,14.34,14.4,47.59359,-54.27349
2023-05-15 18:04:00+00:00,233.0,8.68,235.0,9.68,14.4,47.59359,-54.27349
2023-05-15 18:14:00+00:00,243.0,9.14,253.0,13.21,13.84,47.59359,-54.27349
2023-05-15 18:24:00+00:00,233.0,8.62,231.0,9.78,13.84,47.59359,-54.27349
2023-05-15 18:34:00+00:00,237.0,8.94,247.0,12.53,13.84,47.59359,-54.27349
2023-05-15 18:44:00+00:00,221.0,8.56,225.0,10.43,13.84,47.59359,-54.27349
2023-05-15 18:54:00+00:00,206.0,8.01,218.0,9.02,13.84,47.59359,-54.27349
2023-05-15 19:04:00+00:00,205.0,8.46,209.0,10.19,13.84,47.59359,-54.27349
2023-05-15 19:14:00+00:00,204.0,8.93,220.0,10.81,13.68,47.59359,-54.27349
2023-05-15 19:24:00+00:00,207.0,10.45,214.0,12.84,13.68,47.59359,-54.27349
2023-05-15 19:34:00+00:00,212.0,11.59,213.0,13.58,13.68,47.59359,-54.27349
2023-05-15 19:44:00+00:00,212.0,10.79,215.0,11.99,13.68,47.59359,-54.27349
2023-05-15 19:54:00+00:00,211.0,11.36,209.0,12.69,13.68,47.59359,-54.27349
2023-05-15 20:04:00+00:00,207.0,10.57,210.0,11.78,13.68,47.59359,-54.27349
2023-05-15 20:14:00+00:00,205.0,10.36,205.0,11.84,13.68,47.59359,-54.27349
2023-05-15 20:24:00+00:00,208.0,10.32,214.0,11.69,13.68,47.59359,-54.27349
2023-05-15 20:34:00+00:00,207.0,9.89,210.0,11.26,13.68,47.59359,-54.27349
2023-05-15 20:44:00+00:00,207.0,10.47,204.0,12.19,13.68,47.59359,-54.27349
2023-05-15 20:54:00+00:00,207.0,10.76,210.0,11.84,13.68,47.59359,-54.27349
2023-05-15 21:04:00+00:00,209.0,11.43,209.0,13.02,13.68,47.59359,-54.27349
2023-05-15 21:14:00+00:00,209.0,10.38,214.0,12.48,13.6,47.59359,-54.27349
2023-05-15 21:24:00+00:00,210.0,10.7,213.0,12.7,13.6,47.59359,-54.27349
2023-05-15 21:34:00+00:00,210.0,10.28,210.0,11.26,13.6,47.59359,-54.27349
2023-05-15 21:44:00+00:00,213.0,9.83,211.0,11.22,13.6,47.59359,-54.27349
2023-05-15 21:54:00+00:00,215.0,10.02,216.0,11.59,13.6,47.59359,-54.27349
2023-05-15 22:04:00+00:00,207.0,9.1,212.0,10.75,13.6,47.59359,-54.27349
2023-05-15 22:14:00+00:00,210.0,9.12,210.0,10.78,13.29,47.59359,-54.27349
2023-05-15 22:24:00+00:00,210.0,9.07,210.0,10.27,13.29,47.59359,-54.27349
2023-05-15 22:34:00+00:00,212.0,8.15,213.0,9.14,13.29,47.59359,-54.27349
2023-05-15 22:44:00+00:00,211.0,9.79,217.0,10.92,13.29,47.59359,-54.27349
2023-05-15 22:54:00+00:00,211.0,11.79,212.0,13.36,13.29,47.59359,-54.27349
2023-05-15 23:04:00+00:00,216.0,11.14,218.0,12.18,13.29,47.59359,-54.27349
2023-05-15 23:14:00+00:00,215.0,11.84,208.0,14.81,12.81,47.59359,-54.27349
2023-05-15 23:24:00+00:00,212.0,10.35,217.0,12.54,12.81,47.59359,-54.27349
2023-05-15 23:34:00+00:00,215.0,11.95,214.0,13.52,12.81,47.59359,-54.27349
2023-05-15 23:44:00+00:00,218.0,11.13,222.0,12.42,12.81,47.59359,-54.27349
2023-05-15 23:54:00+00:00,216.0,10.81,214.0,12.2,12.81,47.59359,-54.27349
